owner,sensor,date,latitude,longitude,sea_surface_height_above_sea_level,qcFlag 
TCOON,ioos:station:TCOON:518:1,2019-06-01T00:24:00Z,29.5150,-94.5133,1.478,11111222 
TCOON,ioos:station:TCOON:518:1,2019-06-01T01:24:00Z,29.5150,-94.5133,1.447,11111222 
TCOON,ioos:station:TCOON:518:1,2019-06-01T02:24:00Z,29.5150,-94.5133,1.453,11111222 
TCOON,ioos:station:TCOON:518:1,2019-06-01T03:24:00Z,29.5150,-94.5133,1.39,11111222 
TCOON,ioos:station:TCOON:518:1,2019-06-01T04:24:00Z,29.5150,-94.5133,1.342,11111222 
TCOON,ioos:station:TCOON:518:1,2019-06-01T05:24:00Z,29.5150,-94.5133,1.353,11111222 
TCOON,ioos:station:TCOON:518:1,2019-06-01T06:24:00Z,29.5150,-94.5133,1.382,11111222 
TCOON,ioos:station:TCOON:518:1,2019-06-01T07:24:00Z,29.5150,-94.5133,1.445,11111222 
TCOON,ioos:station:TCOON:518:1,2019-06-01T08:24:00Z,29.5150,-94.5133,1.516,11111222 
TCOON,ioos:station:TCOON:518:1,2019-06-01T09:24:00Z,29.5150,-94.5133,1.568,11111222 
TCOON,ioos:station:TCOON:518:1,2019-06-01T10:24:00Z,29.5150,-94.5133,1.663,11111222 
TCOON,ioos:station:TCOON:518:1,2019-06-01T11:24:00Z,29.5150,-94.5133,1.737,11111222 
TCOON,ioos:station:TCOON:518:1,2019-06-01T12:24:00Z,29.5150,-94.5133,1.754,11111222 
TCOON,ioos:station:TCOON:518:1,2019-06-01T13:24:00Z,29.5150,-94.5133,1.744,11111222 
TCOON,ioos:station:TCOON:518:1,2019-06-01T14:24:00Z,29.5150,-94.5133,1.746,11111222 
TCOON,ioos:station:TCOON:518:1,2019-06-01T15:24:00Z,29.5150,-94.5133,1.741,11111222 
TCOON,ioos:station:TCOON:518:1,2019-06-01T16:24:00Z,29.5150,-94.5133,1.723,11111222 
TCOON,ioos:station:TCOON:518:1,2019-06-01T17:24:00Z,29.5150,-94.5133,1.717,11111222 
TCOON,ioos:station:TCOON:518:1,2019-06-01T18:24:00Z,29.5150,-94.5133,1.689,11111222 
TCOON,ioos:station:TCOON:518:1,2019-06-01T19:24:00Z,29.5150,-94.5133,1.681,11111222 
TCOON,ioos:station:TCOON:518:1,2019-06-01T20:24:00Z,29.5150,-94.5133,1.649,11111222 
TCOON,ioos:station:TCOON:518:1,2019-06-01T21:24:00Z,29.5150,-94.5133,1.626,11111222 
TCOON,ioos:station:TCOON:518:1,2019-06-01T22:24:00Z,29.5150,-94.5133,1.631,11111222 
TCOON,ioos:station:TCOON:518:1,2019-06-01T23:24:00Z,29.5150,-94.5133,1.593,11111222 
TCOON,ioos:station:TCOON:518:1,2019-06-02T00:24:00Z,29.5150,-94.5133,1.504,11111222 
TCOON,ioos:station:TCOON:518:1,2019-06-02T01:24:00Z,29.5150,-94.5133,1.458,11111222 
TCOON,ioos:station:TCOON:518:1,2019-06-02T02:24:00Z,29.5150,-94.5133,1.389,11111222 
TCOON,ioos:station:TCOON:518:1,2019-06-02T03:24:00Z,29.5150,-94.5133,1.336,11111222 
TCOON,ioos:station:TCOON:518:1,2019-06-02T04:24:00Z,29.5150,-94.5133,1.316,11111222 
TCOON,ioos:station:TCOON:518:1,2019-06-02T05:24:00Z,29.5150,-94.5133,1.325,11111222 
TCOON,ioos:station:TCOON:518:1,2019-06-02T06:24:00Z,29.5150,-94.5133,1.323,11111222 
TCOON,ioos:station:TCOON:518:1,2019-06-02T07:24:00Z,29.5150,-94.5133,1.356,11111222 
TCOON,ioos:station:TCOON:518:1,2019-06-02T08:24:00Z,29.5150,-94.5133,1.423,11111222 
TCOON,ioos:station:TCOON:518:1,2019-06-02T09:24:00Z,29.5150,-94.5133,1.554,11111222 
TCOON,ioos:station:TCOON:518:1,2019-06-02T10:24:00Z,29.5150,-94.5133,1.613,11111222 
TCOON,ioos:station:TCOON:518:1,2019-06-02T11:24:00Z,29.5150,-94.5133,1.673,11111222 
TCOON,ioos:station:TCOON:518:1,2019-06-02T12:24:00Z,29.5150,-94.5133,1.733,11111222 
TCOON,ioos:station:TCOON:518:1,2019-06-02T13:24:00Z,29.5150,-94.5133,1.762,11111222 
TCOON,ioos:station:TCOON:518:1,2019-06-02T14:24:00Z,29.5150,-94.5133,1.755,11111222 
TCOON,ioos:station:TCOON:518:1,2019-06-02T15:24:00Z,29.5150,-94.5133,1.743,11111222 
TCOON,ioos:station:TCOON:518:1,2019-06-02T16:24:00Z,29.5150,-94.5133,1.729,11111222 
TCOON,ioos:station:TCOON:518:1,2019-06-02T17:30:00Z,29.5150,-94.5133,1.743,11111222 
TCOON,ioos:station:TCOON:518:1,2019-06-02T18:24:00Z,29.5150,-94.5133,1.693,11111222 
TCOON,ioos:station:TCOON:518:1,2019-06-02T19:30:00Z,29.5150,-94.5133,1.644,11111222 
TCOON,ioos:station:TCOON:518:1,2019-06-02T20:30:00Z,29.5150,-94.5133,1.624,11111222 
TCOON,ioos:station:TCOON:518:1,2019-06-02T21:24:00Z,29.5150,-94.5133,1.605,11111222 
TCOON,ioos:station:TCOON:518:1,2019-06-02T22:30:00Z,29.5150,-94.5133,1.581,11111222 
TCOON,ioos:station:TCOON:518:1,2019-06-02T23:24:00Z,29.5150,-94.5133,1.542,11111222 
TCOON,ioos:station:TCOON:518:1,2019-06-03T00:24:00Z,29.5150,-94.5133,1.508,11111222 
TCOON,ioos:station:TCOON:518:1,2019-06-03T01:24:00Z,29.5150,-94.5133,1.471,11111222 
TCOON,ioos:station:TCOON:518:1,2019-06-03T02:24:00Z,29.5150,-94.5133,1.413,11111222 
TCOON,ioos:station:TCOON:518:1,2019-06-03T03:24:00Z,29.5150,-94.5133,1.343,11111222 
TCOON,ioos:station:TCOON:518:1,2019-06-03T04:24:00Z,29.5150,-94.5133,1.294,11111222 
TCOON,ioos:station:TCOON:518:1,2019-06-03T05:24:00Z,29.5150,-94.5133,1.279,11111222 
TCOON,ioos:station:TCOON:518:1,2019-06-03T06:24:00Z,29.5150,-94.5133,1.278,11111222 
TCOON,ioos:station:TCOON:518:1,2019-06-03T07:24:00Z,29.5150,-94.5133,1.275,11111222 
TCOON,ioos:station:TCOON:518:1,2019-06-03T08:24:00Z,29.5150,-94.5133,1.337,11111222 
TCOON,ioos:station:TCOON:518:1,2019-06-03T09:24:00Z,29.5150,-94.5133,1.454,11111222 
TCOON,ioos:station:TCOON:518:1,2019-06-03T10:24:00Z,29.5150,-94.5133,1.562,11111222 
TCOON,ioos:station:TCOON:518:1,2019-06-03T11:24:00Z,29.5150,-94.5133,1.604,11111222 
TCOON,ioos:station:TCOON:518:1,2019-06-03T12:30:00Z,29.5150,-94.5133,1.649,11111222 
TCOON,ioos:station:TCOON:518:1,2019-06-03T13:30:00Z,29.5150,-94.5133,1.688,11111222 
TCOON,ioos:station:TCOON:518:1,2019-06-03T14:30:00Z,29.5150,-94.5133,1.679,11111222 
TCOON,ioos:station:TCOON:518:1,2019-06-03T15:30:00Z,29.5150,-94.5133,1.715,11111222 
TCOON,ioos:station:TCOON:518:1,2019-06-03T16:30:00Z,29.5150,-94.5133,1.715,11111222 
TCOON,ioos:station:TCOON:518:1,2019-06-03T17:24:00Z,29.5150,-94.5133,1.695,11111222 
TCOON,ioos:station:TCOON:518:1,2019-06-03T18:30:00Z,29.5150,-94.5133,1.681,11111222 
TCOON,ioos:station:TCOON:518:1,2019-06-03T19:30:00Z,29.5150,-94.5133,1.659,11111222 
TCOON,ioos:station:TCOON:518:1,2019-06-03T20:30:00Z,29.5150,-94.5133,1.607,11111222 
TCOON,ioos:station:TCOON:518:1,2019-06-03T21:30:00Z,29.5150,-94.5133,1.602,11111222 
TCOON,ioos:station:TCOON:518:1,2019-06-03T22:30:00Z,29.5150,-94.5133,1.569,11111222 
TCOON,ioos:station:TCOON:518:1,2019-06-03T23:24:00Z,29.5150,-94.5133,1.535,11111222 
TCOON,ioos:station:TCOON:518:1,2019-06-04T00:24:00Z,29.5150,-94.5133,1.495,11111222 
TCOON,ioos:station:TCOON:518:1,2019-06-04T01:24:00Z,29.5150,-94.5133,1.458,11111222 
TCOON,ioos:station:TCOON:518:1,2019-06-04T02:24:00Z,29.5150,-94.5133,1.391,11111222 
TCOON,ioos:station:TCOON:518:1,2019-06-04T03:24:00Z,29.5150,-94.5133,1.345,11111222 
TCOON,ioos:station:TCOON:518:1,2019-06-04T04:24:00Z,29.5150,-94.5133,1.28,11111222 
TCOON,ioos:station:TCOON:518:1,2019-06-04T05:24:00Z,29.5150,-94.5133,1.234,11111222 
TCOON,ioos:station:TCOON:518:1,2019-06-04T06:24:00Z,29.5150,-94.5133,1.201,11111222 
TCOON,ioos:station:TCOON:518:1,2019-06-04T07:24:00Z,29.5150,-94.5133,1.2,11111222 
TCOON,ioos:station:TCOON:518:1,2019-06-04T08:24:00Z,29.5150,-94.5133,1.234,11111222 
TCOON,ioos:station:TCOON:518:1,2019-06-04T09:24:00Z,29.5150,-94.5133,1.332,11111222 
TCOON,ioos:station:TCOON:518:1,2019-06-04T10:30:00Z,29.5150,-94.5133,1.452,11111222 
TCOON,ioos:station:TCOON:518:1,2019-06-04T11:24:00Z,29.5150,-94.5133,1.518,11111222 
TCOON,ioos:station:TCOON:518:1,2019-06-04T12:24:00Z,29.5150,-94.5133,1.604,11111222 
TCOON,ioos:station:TCOON:518:1,2019-06-04T13:24:00Z,29.5150,-94.5133,1.674,11111222 
TCOON,ioos:station:TCOON:518:1,2019-06-04T14:30:00Z,29.5150,-94.5133,1.733,11111222 
TCOON,ioos:station:TCOON:518:1,2019-06-04T15:30:00Z,29.5150,-94.5133,1.763,11111222 
TCOON,ioos:station:TCOON:518:1,2019-06-04T16:30:00Z,29.5150,-94.5133,1.779,11111222 
TCOON,ioos:station:TCOON:518:1,2019-06-04T17:30:00Z,29.5150,-94.5133,1.75,11111222 
TCOON,ioos:station:TCOON:518:1,2019-06-04T18:30:00Z,29.5150,-94.5133,1.769,11111222 
TCOON,ioos:station:TCOON:518:1,2019-06-04T19:30:00Z,29.5150,-94.5133,1.725,11111222 
TCOON,ioos:station:TCOON:518:1,2019-06-04T20:30:00Z,29.5150,-94.5133,1.71,11111222 
TCOON,ioos:station:TCOON:518:1,2019-06-04T21:24:00Z,29.5150,-94.5133,1.705,11111222 
TCOON,ioos:station:TCOON:518:1,2019-06-04T22:24:00Z,29.5150,-94.5133,1.731,11111222 
TCOON,ioos:station:TCOON:518:1,2019-06-04T23:24:00Z,29.5150,-94.5133,1.742,11111222 
TCOON,ioos:station:TCOON:518:1,2019-06-05T00:24:00Z,29.5150,-94.5133,1.628,11111222 
TCOON,ioos:station:TCOON:518:1,2019-06-05T01:24:00Z,29.5150,-94.5133,1.562,11111222 
TCOON,ioos:station:TCOON:518:1,2019-06-05T02:24:00Z,29.5150,-94.5133,1.516,11111222 
TCOON,ioos:station:TCOON:518:1,2019-06-05T03:24:00Z,29.5150,-94.5133,1.436,11111222 
TCOON,ioos:station:TCOON:518:1,2019-06-05T04:24:00Z,29.5150,-94.5133,1.352,11111222 
TCOON,ioos:station:TCOON:518:1,2019-06-05T05:24:00Z,29.5150,-94.5133,1.283,11111222 
TCOON,ioos:station:TCOON:518:1,2019-06-05T06:24:00Z,29.5150,-94.5133,1.242,11111222 
TCOON,ioos:station:TCOON:518:1,2019-06-05T07:24:00Z,29.5150,-94.5133,1.19,11111222 
TCOON,ioos:station:TCOON:518:1,2019-06-05T08:24:00Z,29.5150,-94.5133,1.143,11111222 
TCOON,ioos:station:TCOON:518:1,2019-06-05T09:24:00Z,29.5150,-94.5133,1.162,11111222 
TCOON,ioos:station:TCOON:518:1,2019-06-05T10:24:00Z,29.5150,-94.5133,1.249,11111222 
TCOON,ioos:station:TCOON:518:1,2019-06-05T11:24:00Z,29.5150,-94.5133,1.405,11111222 
TCOON,ioos:station:TCOON:518:1,2019-06-05T12:24:00Z,29.5150,-94.5133,1.605,11111222 
TCOON,ioos:station:TCOON:518:1,2019-06-05T13:30:00Z,29.5150,-94.5133,1.698,11111222 
TCOON,ioos:station:TCOON:518:1,2019-06-05T14:30:00Z,29.5150,-94.5133,1.826,11111222 
TCOON,ioos:station:TCOON:518:1,2019-06-05T15:30:00Z,29.5150,-94.5133,1.929,11111222 
TCOON,ioos:station:TCOON:518:1,2019-06-05T16:30:00Z,29.5150,-94.5133,1.886,11111222 
TCOON,ioos:station:TCOON:518:1,2019-06-05T17:30:00Z,29.5150,-94.5133,1.853,11111222 
TCOON,ioos:station:TCOON:518:1,2019-06-05T18:30:00Z,29.5150,-94.5133,1.877,11111222 
TCOON,ioos:station:TCOON:518:1,2019-06-05T19:30:00Z,29.5150,-94.5133,1.957,11111222 
TCOON,ioos:station:TCOON:518:1,2019-06-05T20:30:00Z,29.5150,-94.5133,1.927,11111222 
TCOON,ioos:station:TCOON:518:1,2019-06-05T21:30:00Z,29.5150,-94.5133,1.804,11111222 
TCOON,ioos:station:TCOON:518:1,2019-06-05T22:30:00Z,29.5150,-94.5133,1.795,11111222 
TCOON,ioos:station:TCOON:518:1,2019-06-05T23:30:00Z,29.5150,-94.5133,2.013,11111222 
TCOON,ioos:station:TCOON:518:1,2019-06-06T00:24:00Z,29.5150,-94.5133,2.161,11111222 
TCOON,ioos:station:TCOON:518:1,2019-06-06T01:24:00Z,29.5150,-94.5133,2.122,11111222 
TCOON,ioos:station:TCOON:518:1,2019-06-06T02:24:00Z,29.5150,-94.5133,2.179,11111222 
TCOON,ioos:station:TCOON:518:1,2019-06-06T03:24:00Z,29.5150,-94.5133,2.077,11111222 
TCOON,ioos:station:TCOON:518:1,2019-06-06T04:24:00Z,29.5150,-94.5133,1.986,11111222 
TCOON,ioos:station:TCOON:518:1,2019-06-06T05:24:00Z,29.5150,-94.5133,1.85,11111222 
TCOON,ioos:station:TCOON:518:1,2019-06-06T06:24:00Z,29.5150,-94.5133,1.736,11111222 
TCOON,ioos:station:TCOON:518:1,2019-06-06T07:24:00Z,29.5150,-94.5133,1.654,11111222 
TCOON,ioos:station:TCOON:518:1,2019-06-06T08:24:00Z,29.5150,-94.5133,1.603,11111222 
TCOON,ioos:station:TCOON:518:1,2019-06-06T09:24:00Z,29.5150,-94.5133,1.56,11111222 
TCOON,ioos:station:TCOON:518:1,2019-06-06T10:24:00Z,29.5150,-94.5133,1.56,11111222 
TCOON,ioos:station:TCOON:518:1,2019-06-06T11:24:00Z,29.5150,-94.5133,1.556,11111222 
TCOON,ioos:station:TCOON:518:1,2019-06-06T12:30:00Z,29.5150,-94.5133,1.628,11111222 
TCOON,ioos:station:TCOON:518:1,2019-06-06T13:24:00Z,29.5150,-94.5133,1.686,11111222 
TCOON,ioos:station:TCOON:518:1,2019-06-06T14:30:00Z,29.5150,-94.5133,1.738,11111222 
TCOON,ioos:station:TCOON:518:1,2019-06-06T15:30:00Z,29.5150,-94.5133,1.738,11111222 
TCOON,ioos:station:TCOON:518:1,2019-06-06T16:30:00Z,29.5150,-94.5133,1.73,11111222 
TCOON,ioos:station:TCOON:518:1,2019-06-06T17:30:00Z,29.5150,-94.5133,1.763,11111222 
TCOON,ioos:station:TCOON:518:1,2019-06-06T18:30:00Z,29.5150,-94.5133,1.787,11111222 
TCOON,ioos:station:TCOON:518:1,2019-06-06T19:30:00Z,29.5150,-94.5133,1.814,11111222 
TCOON,ioos:station:TCOON:518:1,2019-06-06T20:30:00Z,29.5150,-94.5133,1.83,11111222 
TCOON,ioos:station:TCOON:518:1,2019-06-06T21:24:00Z,29.5150,-94.5133,1.756,11111222 
TCOON,ioos:station:TCOON:518:1,2019-06-06T22:24:00Z,29.5150,-94.5133,1.77,11111222 
TCOON,ioos:station:TCOON:518:1,2019-06-06T23:24:00Z,29.5150,-94.5133,1.759,11111222 
TCOON,ioos:station:TCOON:518:1,2019-06-07T00:24:00Z,29.5150,-94.5133,1.714,11111222 
TCOON,ioos:station:TCOON:518:1,2019-06-07T01:24:00Z,29.5150,-94.5133,1.706,11111222 
TCOON,ioos:station:TCOON:518:1,2019-06-07T02:24:00Z,29.5150,-94.5133,1.753,11111222 
TCOON,ioos:station:TCOON:518:1,2019-06-07T03:24:00Z,29.5150,-94.5133,1.768,11111222 
TCOON,ioos:station:TCOON:518:1,2019-06-07T04:24:00Z,29.5150,-94.5133,1.605,11111222 
TCOON,ioos:station:TCOON:518:1,2019-06-07T05:24:00Z,29.5150,-94.5133,1.515,11111222 
TCOON,ioos:station:TCOON:518:1,2019-06-07T06:24:00Z,29.5150,-94.5133,1.464,11111222 
TCOON,ioos:station:TCOON:518:1,2019-06-07T07:24:00Z,29.5150,-94.5133,1.477,11111222 
TCOON,ioos:station:TCOON:518:1,2019-06-07T08:24:00Z,29.5150,-94.5133,1.426,11111222 
TCOON,ioos:station:TCOON:518:1,2019-06-07T09:24:00Z,29.5150,-94.5133,1.355,11111222 
TCOON,ioos:station:TCOON:518:1,2019-06-07T10:24:00Z,29.5150,-94.5133,1.373,11111222 
TCOON,ioos:station:TCOON:518:1,2019-06-07T11:24:00Z,29.5150,-94.5133,1.417,11111222 
TCOON,ioos:station:TCOON:518:1,2019-06-07T12:24:00Z,29.5150,-94.5133,1.439,11111222 
TCOON,ioos:station:TCOON:518:1,2019-06-07T13:30:00Z,29.5150,-94.5133,1.505,11111222 
TCOON,ioos:station:TCOON:518:1,2019-06-07T14:24:00Z,29.5150,-94.5133,1.577,11111222 
TCOON,ioos:station:TCOON:518:1,2019-06-07T15:30:00Z,29.5150,-94.5133,1.695,11111222 
TCOON,ioos:station:TCOON:518:1,2019-06-07T16:30:00Z,29.5150,-94.5133,1.754,11111222 
TCOON,ioos:station:TCOON:518:1,2019-06-07T17:30:00Z,29.5150,-94.5133,1.743,11111222 
TCOON,ioos:station:TCOON:518:1,2019-06-07T18:24:00Z,29.5150,-94.5133,1.727,11111222 
TCOON,ioos:station:TCOON:518:1,2019-06-07T19:30:00Z,29.5150,-94.5133,1.687,11111222 
TCOON,ioos:station:TCOON:518:1,2019-06-07T20:24:00Z,29.5150,-94.5133,1.704,11111222 
TCOON,ioos:station:TCOON:518:1,2019-06-07T21:30:00Z,29.5150,-94.5133,1.702,11111222 
TCOON,ioos:station:TCOON:518:1,2019-06-07T22:24:00Z,29.5150,-94.5133,1.666,11111222 
TCOON,ioos:station:TCOON:518:1,2019-06-07T23:24:00Z,29.5150,-94.5133,1.666,11111222 
TCOON,ioos:station:TCOON:518:1,2019-06-08T00:24:00Z,29.5150,-94.5133,1.656,11111222 
TCOON,ioos:station:TCOON:518:1,2019-06-08T01:24:00Z,29.5150,-94.5133,1.625,11111222 
TCOON,ioos:station:TCOON:518:1,2019-06-08T02:24:00Z,29.5150,-94.5133,1.58,11111222 
TCOON,ioos:station:TCOON:518:1,2019-06-08T03:24:00Z,29.5150,-94.5133,1.546,11111222 
TCOON,ioos:station:TCOON:518:1,2019-06-08T04:24:00Z,29.5150,-94.5133,1.488,11111222 
TCOON,ioos:station:TCOON:518:1,2019-06-08T05:24:00Z,29.5150,-94.5133,1.434,11111222 
TCOON,ioos:station:TCOON:518:1,2019-06-08T06:24:00Z,29.5150,-94.5133,1.366,11111222 
TCOON,ioos:station:TCOON:518:1,2019-06-08T07:24:00Z,29.5150,-94.5133,1.313,11111222 
TCOON,ioos:station:TCOON:518:1,2019-06-08T08:24:00Z,29.5150,-94.5133,1.26,11111222 
TCOON,ioos:station:TCOON:518:1,2019-06-08T09:24:00Z,29.5150,-94.5133,1.224,11111222 
TCOON,ioos:station:TCOON:518:1,2019-06-08T10:24:00Z,29.5150,-94.5133,1.202,11111222 
TCOON,ioos:station:TCOON:518:1,2019-06-08T11:24:00Z,29.5150,-94.5133,1.159,11111222 
TCOON,ioos:station:TCOON:518:1,2019-06-08T12:24:00Z,29.5150,-94.5133,1.224,11111222 
TCOON,ioos:station:TCOON:518:1,2019-06-08T13:24:00Z,29.5150,-94.5133,1.335,11111222 
TCOON,ioos:station:TCOON:518:1,2019-06-08T14:30:00Z,29.5150,-94.5133,1.455,11111222 
TCOON,ioos:station:TCOON:518:1,2019-06-08T15:24:00Z,29.5150,-94.5133,1.526,11111222 
TCOON,ioos:station:TCOON:518:1,2019-06-08T16:30:00Z,29.5150,-94.5133,1.607,11111222 
TCOON,ioos:station:TCOON:518:1,2019-06-08T17:36:00Z,29.5150,-94.5133,1.689,11111222 
TCOON,ioos:station:TCOON:518:1,2019-06-08T18:24:00Z,29.5150,-94.5133,1.711,11111222 
TCOON,ioos:station:TCOON:518:1,2019-06-09T00:12:00Z,29.5150,-94.5133,1.54,11111222 
TCOON,ioos:station:TCOON:518:1,2019-06-09T01:24:00Z,29.5150,-94.5133,1.498,11111222 
TCOON,ioos:station:TCOON:518:1,2019-06-09T02:24:00Z,29.5150,-94.5133,1.507,11111222 
TCOON,ioos:station:TCOON:518:1,2019-06-09T03:24:00Z,29.5150,-94.5133,1.499,11111222 
TCOON,ioos:station:TCOON:518:1,2019-06-09T04:24:00Z,29.5150,-94.5133,1.464,11111222 
TCOON,ioos:station:TCOON:518:1,2019-06-09T05:24:00Z,29.5150,-94.5133,1.42,11111222 
TCOON,ioos:station:TCOON:518:1,2019-06-09T06:24:00Z,29.5150,-94.5133,1.379,11111222 
TCOON,ioos:station:TCOON:518:1,2019-06-09T07:24:00Z,29.5150,-94.5133,1.324,11111222 
TCOON,ioos:station:TCOON:518:1,2019-06-09T08:24:00Z,29.5150,-94.5133,1.255,11111222 
TCOON,ioos:station:TCOON:518:1,2019-06-09T09:24:00Z,29.5150,-94.5133,1.215,11111222 
TCOON,ioos:station:TCOON:518:1,2019-06-09T10:24:00Z,29.5150,-94.5133,1.181,11111222 
TCOON,ioos:station:TCOON:518:1,2019-06-09T11:24:00Z,29.5150,-94.5133,1.163,11111222 
TCOON,ioos:station:TCOON:518:1,2019-06-09T12:24:00Z,29.5150,-94.5133,1.178,11111222 
TCOON,ioos:station:TCOON:518:1,2019-06-09T13:24:00Z,29.5150,-94.5133,1.215,11111222 
TCOON,ioos:station:TCOON:518:1,2019-06-09T14:30:00Z,29.5150,-94.5133,1.325,11111222 
TCOON,ioos:station:TCOON:518:1,2019-06-09T15:24:00Z,29.5150,-94.5133,1.425,11111222 
TCOON,ioos:station:TCOON:518:1,2019-06-09T16:24:00Z,29.5150,-94.5133,1.516,11111222 
TCOON,ioos:station:TCOON:518:1,2019-06-09T17:24:00Z,29.5150,-94.5133,1.564,11111222 
TCOON,ioos:station:TCOON:518:1,2019-06-09T18:24:00Z,29.5150,-94.5133,1.626,11111222 
TCOON,ioos:station:TCOON:518:1,2019-06-09T19:30:00Z,29.5150,-94.5133,1.647,11111222 
TCOON,ioos:station:TCOON:518:1,2019-06-09T20:24:00Z,29.5150,-94.5133,1.66,11111222 
TCOON,ioos:station:TCOON:518:1,2019-06-09T21:24:00Z,29.5150,-94.5133,1.659,11111222 
TCOON,ioos:station:TCOON:518:1,2019-06-09T22:30:00Z,29.5150,-94.5133,1.666,11111222 
TCOON,ioos:station:TCOON:518:1,2019-06-09T23:24:00Z,29.5150,-94.5133,1.636,11111222 
TCOON,ioos:station:TCOON:518:1,2019-06-10T00:24:00Z,29.5150,-94.5133,1.585,11111222 
TCOON,ioos:station:TCOON:518:1,2019-06-10T01:24:00Z,29.5150,-94.5133,1.532,11111222 
TCOON,ioos:station:TCOON:518:1,2019-06-10T02:24:00Z,29.5150,-94.5133,1.531,11111222 
TCOON,ioos:station:TCOON:518:1,2019-06-10T03:24:00Z,29.5150,-94.5133,1.508,11111222 
TCOON,ioos:station:TCOON:518:1,2019-06-10T04:24:00Z,29.5150,-94.5133,1.478,11111222 
TCOON,ioos:station:TCOON:518:1,2019-06-10T05:24:00Z,29.5150,-94.5133,1.446,11111222 
TCOON,ioos:station:TCOON:518:1,2019-06-10T06:24:00Z,29.5150,-94.5133,1.466,11111222 
TCOON,ioos:station:TCOON:518:1,2019-06-10T07:24:00Z,29.5150,-94.5133,1.468,11111222 
TCOON,ioos:station:TCOON:518:1,2019-06-10T08:24:00Z,29.5150,-94.5133,1.403,11111222 
TCOON,ioos:station:TCOON:518:1,2019-06-10T09:24:00Z,29.5150,-94.5133,1.329,11111222 
TCOON,ioos:station:TCOON:518:1,2019-06-10T10:24:00Z,29.5150,-94.5133,1.305,11111222 
TCOON,ioos:station:TCOON:518:1,2019-06-10T11:24:00Z,29.5150,-94.5133,1.26,11111222 
TCOON,ioos:station:TCOON:518:1,2019-06-10T12:24:00Z,29.5150,-94.5133,1.243,11111222 
TCOON,ioos:station:TCOON:518:1,2019-06-10T13:30:00Z,29.5150,-94.5133,1.227,11111222 
TCOON,ioos:station:TCOON:518:1,2019-06-10T14:24:00Z,29.5150,-94.5133,1.223,11111222 
TCOON,ioos:station:TCOON:518:1,2019-06-10T15:30:00Z,29.5150,-94.5133,1.242,11111222 
TCOON,ioos:station:TCOON:518:1,2019-06-10T16:30:00Z,29.5150,-94.5133,1.344,11111222 
TCOON,ioos:station:TCOON:518:1,2019-06-10T17:30:00Z,29.5150,-94.5133,1.459,11111222 
TCOON,ioos:station:TCOON:518:1,2019-06-10T18:30:00Z,29.5150,-94.5133,1.521,11111222 
TCOON,ioos:station:TCOON:518:1,2019-06-10T19:24:00Z,29.5150,-94.5133,1.553,11111222 
TCOON,ioos:station:TCOON:518:1,2019-06-10T20:30:00Z,29.5150,-94.5133,1.567,11111222 
TCOON,ioos:station:TCOON:518:1,2019-06-10T21:30:00Z,29.5150,-94.5133,1.575,11111222 
TCOON,ioos:station:TCOON:518:1,2019-06-10T22:24:00Z,29.5150,-94.5133,1.555,11111222 
TCOON,ioos:station:TCOON:518:1,2019-06-10T23:24:00Z,29.5150,-94.5133,1.531,11111222 
TCOON,ioos:station:TCOON:518:1,2019-06-11T00:24:00Z,29.5150,-94.5133,1.478,11111222 
TCOON,ioos:station:TCOON:518:1,2019-06-11T01:24:00Z,29.5150,-94.5133,1.445,11111222 
TCOON,ioos:station:TCOON:518:1,2019-06-11T02:30:00Z,29.5150,-94.5133,1.414,11111222 
TCOON,ioos:station:TCOON:518:1,2019-06-11T03:24:00Z,29.5150,-94.5133,1.402,11111222 
TCOON,ioos:station:TCOON:518:1,2019-06-11T04:24:00Z,29.5150,-94.5133,1.398,11111222 
TCOON,ioos:station:TCOON:518:1,2019-06-11T05:24:00Z,29.5150,-94.5133,1.396,11111222 
TCOON,ioos:station:TCOON:518:1,2019-06-11T06:24:00Z,29.5150,-94.5133,1.362,11111222 
TCOON,ioos:station:TCOON:518:1,2019-06-11T07:24:00Z,29.5150,-94.5133,1.347,11111222 
TCOON,ioos:station:TCOON:518:1,2019-06-11T08:24:00Z,29.5150,-94.5133,1.336,11111222 
TCOON,ioos:station:TCOON:518:1,2019-06-11T09:24:00Z,29.5150,-94.5133,1.295,11111222 
TCOON,ioos:station:TCOON:518:1,2019-06-11T10:24:00Z,29.5150,-94.5133,1.271,11111222 
TCOON,ioos:station:TCOON:518:1,2019-06-11T11:24:00Z,29.5150,-94.5133,1.26,11111222 
TCOON,ioos:station:TCOON:518:1,2019-06-11T12:42:00Z,29.5150,-94.5133,1.25,11111222 
TCOON,ioos:station:TCOON:518:1,2019-06-11T13:30:00Z,29.5150,-94.5133,1.246,11111222 
TCOON,ioos:station:TCOON:518:1,2019-06-11T14:30:00Z,29.5150,-94.5133,1.278,11111222 
TCOON,ioos:station:TCOON:518:1,2019-06-11T15:30:00Z,29.5150,-94.5133,1.384,11111222 
TCOON,ioos:station:TCOON:518:1,2019-06-11T16:24:00Z,29.5150,-94.5133,1.484,11111222 
TCOON,ioos:station:TCOON:518:1,2019-06-11T19:24:00Z,29.5150,-94.5133,1.701,11111222 
TCOON,ioos:station:TCOON:518:1,2019-06-11T20:24:00Z,29.5150,-94.5133,1.743,11111222 
TCOON,ioos:station:TCOON:518:1,2019-06-11T21:30:00Z,29.5150,-94.5133,1.758,11111222 
TCOON,ioos:station:TCOON:518:1,2019-06-11T22:24:00Z,29.5150,-94.5133,1.706,11111222 
TCOON,ioos:station:TCOON:518:1,2019-06-11T23:24:00Z,29.5150,-94.5133,1.676,11111222 
TCOON,ioos:station:TCOON:518:1,2019-06-12T00:24:00Z,29.5150,-94.5133,1.611,11111222 
TCOON,ioos:station:TCOON:518:1,2019-06-12T01:24:00Z,29.5150,-94.5133,1.539,11111222 
TCOON,ioos:station:TCOON:518:1,2019-06-12T02:24:00Z,29.5150,-94.5133,1.487,11111222 
TCOON,ioos:station:TCOON:518:1,2019-06-12T03:24:00Z,29.5150,-94.5133,1.455,11111222 
TCOON,ioos:station:TCOON:518:1,2019-06-12T04:24:00Z,29.5150,-94.5133,1.414,11111222 
TCOON,ioos:station:TCOON:518:1,2019-06-12T05:24:00Z,29.5150,-94.5133,1.402,11111222 
TCOON,ioos:station:TCOON:518:1,2019-06-12T06:24:00Z,29.5150,-94.5133,1.428,11111222 
TCOON,ioos:station:TCOON:518:1,2019-06-12T07:24:00Z,29.5150,-94.5133,1.501,11111222 
TCOON,ioos:station:TCOON:518:1,2019-06-12T08:24:00Z,29.5150,-94.5133,1.536,11111222 
TCOON,ioos:station:TCOON:518:1,2019-06-12T09:24:00Z,29.5150,-94.5133,1.554,11111222 
TCOON,ioos:station:TCOON:518:1,2019-06-12T10:30:00Z,29.5150,-94.5133,1.552,11111222 
TCOON,ioos:station:TCOON:518:1,2019-06-12T11:24:00Z,29.5150,-94.5133,1.515,11111222 
TCOON,ioos:station:TCOON:518:1,2019-06-12T12:30:00Z,29.5150,-94.5133,1.546,11111222 
TCOON,ioos:station:TCOON:518:1,2019-06-12T13:30:00Z,29.5150,-94.5133,1.568,11111222 
TCOON,ioos:station:TCOON:518:1,2019-06-12T14:30:00Z,29.5150,-94.5133,1.555,11111222 
TCOON,ioos:station:TCOON:518:1,2019-06-12T15:24:00Z,29.5150,-94.5133,1.559,11111222 
TCOON,ioos:station:TCOON:518:1,2019-06-12T16:30:00Z,29.5150,-94.5133,1.615,11111222 
TCOON,ioos:station:TCOON:518:1,2019-06-12T17:24:00Z,29.5150,-94.5133,1.634,11111222 
TCOON,ioos:station:TCOON:518:1,2019-06-12T18:30:00Z,29.5150,-94.5133,1.646,11111222 
TCOON,ioos:station:TCOON:518:1,2019-06-12T19:30:00Z,29.5150,-94.5133,1.685,11111222 
TCOON,ioos:station:TCOON:518:1,2019-06-12T20:30:00Z,29.5150,-94.5133,1.711,11111222 
TCOON,ioos:station:TCOON:518:1,2019-06-12T21:24:00Z,29.5150,-94.5133,1.687,11111222 
TCOON,ioos:station:TCOON:518:1,2019-06-12T22:30:00Z,29.5150,-94.5133,1.681,11111222 
TCOON,ioos:station:TCOON:518:1,2019-06-12T23:30:00Z,29.5150,-94.5133,1.637,11111222 